Location: Vigo
(43.5670°N, 6.6330°W)
Time: 10:29:10
(UTC+02:00)

ISS - Pass Details

Date: 03 June 2020
Orbit: 417 x 421 km, 51.6° (Epoch: 07 July)

Event Time Altitude Azimuth Distance (km) Brightness Sun altitude
Rises 22:56:41 0° 294° (WNW) 2,377 1.7 -8.5°
Reaches altitude 10° 22:59:00 10° 281° (W) 1,509 0.1 -8.9°
Maximum altitude 23:01:51 25° 224° (SW) 890 -2.1 -9.2°
Enters shadow 23:04:41 10° 166° (SSE) 1,499 -1.5 -9.6°
